User: anonymous   Login
Location: Bangkok
(13.7500°N, 100.5170°E)
Time: 07:44:41
(UTC+07:00)
Language:

Cosmos 1802 Rocket - Orbit

View from above orbital plane
View from above orbital plane
View from above satellite
View from above satellite

Ground track
Ground track

The orbit data is extracted from the following two-line orbital elements,

1 17160U 86093B   15028.50471111  .00000009  00000-0 -69843-5 0  2366
2 17160 082.9302 350.1903 0040041 056.4809 076.7949 13.74536372413251
Epoch (UTC): 28 January 2015 12:06:47
Eccentricity: 0.0040041
inclination: 82.9302°
perigee height: 954 km
apogee height: 1013 km
right ascension of ascending node: 350.1903°
argument of perigee: 56.4809°
revolutions per day: 13.74536372
mean anomaly at epoch: 76.7949°
orbit number at epoch: 41325

The dashed part of the orbit path shows where the satellite is in the earth's shadow,  

DLR